Tracking 19817 objects as of 18-Aug-2019
HD Live streaming from Space Station
objects crossing your sky now

COSMOS 2251 DEB

Track COSMOS 2251 DEB now!
10-day predictions


NORAD ID: 38057
Int'l Code: 1993-036BRP
Perigee: 752.8 km
Apogee: 1,008.1 km
Inclination: 74.0 °
Period: 102.4 minutes
Semi major axis: 7251 km
RCS: 0.0099 m2 (small)
Launch date: June 16, 1993
Source: Commonwealth of Independent States (former USSR) (CIS)
Launch site: PLESETSK MISSILE AND SPACE COMPLEX (PKMTR)

Note: This is SATELLITE DEBRIS
aabbcc
Your satellite tracking list
Your tracking list is empty




NASA's NSSDC Master Catalog

Two Line Element Set (TLE):
1 38057U 93036BRP 19228.59329981  .00000579  00000-0  32017-3 0  9999
2 38057  74.0137 193.1382 0176084 150.4509 210.6723 14.05937401503490
Source of the keplerian elements: AFSPC